Location: Riverside Cemetery
(38.3047°N, 99.7773°W)
Time: 03:38:51
(UTC+00:00)

Cosmos 921 Rocket - Pass Details

Date: 19 September 2020
Orbit: 572 x 632 km, 75.8° (Epoch: 22 October)

Event Time Altitude Azimuth Distance (km) Brightness Sun altitude
Exits shadow 11:32:00 15° 271° (W) 1,561 4.5 -11.1°
Maximum altitude 11:33:23 18° 296° (WNW) 1,447 4.5 -10.8°
Drops below altitude 10° 11:36:15 10° 339° (NNW) 1,882 5.4 -10.3°
Sets 11:39:05 0° 359° (N) 2,786 6.5 -9.7°
